Stations météo

Publicité
Bezier-Vias, France (7638): Température de l'air & dewpoint: 12.08.2017 03:00:00 - 18.08.2017 03:00:00 (CEST)Bezier-Vias, France (7638): Vitesse du vent & gusts: 12.08.2017 03:00:00 - 18.08.2017 03:00:00 (CEST)Bezier-Vias, France (7638): Direction du vent: 12.08.2017 03:00:00 - 18.08.2017 03:00:00 (CEST)Bezier-Vias, France (7638): reduced air pressure: 12.08.2017 03:00:00 - 18.08.2017 03:00:00 (CEST)Bezier-Vias, France (7638): visibility: 12.08.2017 03:00:00 - 18.08.2017 03:00:00 (CEST)Bezier-Vias, France (7638): Quantités de précipitations: 12.08.2017 03:00:00 - 18.08.2017 03:00:00 (CEST)
Date & Time tt [°C] td [°C] ff [km/h] ff [knt] fx [km/h] fx [knt] dd ppp [hPa] vv [km] rr [mm]
18.08.2017 03:00:00 21,4 14,1 13 7 15 8 NW 1016,2 60 0,0
18.08.2017 02:00:00 21,3 14,0 3 2 12 6 WSW 1016,8 60 0,0
18.08.2017 01:00:00 22,4 14,3 7 4 11 6 W 1016,7 60 0,0
18.08.2017 00:00:00 23,1 14,1 11 6 16 9 WNW 1016,8 60 0,0
17.08.2017 23:00:00 25,6 14,4 10 5 18 10 W 1016,8 60 0,0
17.08.2017 22:00:00 23,6 17,3 10 5 14 8 W 1016,9 54 0,0
17.08.2017 21:00:00 25,4 17,3 5 3 24 13 WSW 1016,6 57 0,0
17.08.2017 20:00:00 27,2 17,7 13 7 34 18 S 1016,4 60 0,0
17.08.2017 19:00:00 27,9 18,3 19 10 37 20 S 1016,2 24 0,0
17.08.2017 18:00:00 30,8 16,8 18 10 31 17 S 1016,2 27 0,0
17.08.2017 17:00:00 34,7 14,6 19 10 34 18 SSW 1016,3 29 0,0
17.08.2017 16:00:00 34,1 16,5 16 9 34 18 WSW 1016,9 33 0,0
17.08.2017 15:00:00 33,2 16,1 18 10 38 20 SSW 1017,4 40 0,0
17.08.2017 14:00:00 33,0 15,5 10 5 26 14 W 1018,0 47 0,0
17.08.2017 13:00:00 31,9 16,2 14 7 26 14 W 1018,3 40 0,0
17.08.2017 12:00:00 30,2 15,5 10 6 26 14 NW 1018,9 38 0,0
17.08.2017 11:00:00 28,7 16,6 11 6 24 13 NW 1019,2 39 0,0
17.08.2017 10:00:00 26,8 17,3 14 8 24 13 WNW 1019,4 47 0,0
17.08.2017 09:00:00 24,0 17,7 14 7 19 10 W 1019,3 60 0,0
17.08.2017 08:00:00 21,6 17,8 10 5 17 9 W 1019,1 31 0,0
17.08.2017 07:00:00 20,7 17,5 9 5 15 8 W 1018,8 36 0,0
17.08.2017 06:00:00 21,1 17,5 9 5 15 8 W 1018,5 37 0,0
17.08.2017 05:00:00 21,5 17,5 11 6 17 9 W 1018,4 40 0,0
17.08.2017 04:00:00 22,0 17,4 11 6 19 11 W 1018,7 45 0,0
17.08.2017 03:00:00 22,4 17,1 14 7 21 11 W 1018,9 45 0,0
17.08.2017 02:00:00 23,0 17,2 12 6 19 10 WNW 1018,9 49 0,0
17.08.2017 01:00:00 22,5 17,0 8 4 11 6 W 1018,9 43 0,0
17.08.2017 00:00:00 23,5 16,8 6 4 11 6 NW 1018,9 53 0,0
16.08.2017 23:00:00 23,3 16,6 9 5 19 10 W 1018,9 52 0,0
16.08.2017 22:00:00 23,4 16,4 9 5 16 9 WNW 1018,6 60 0,0
16.08.2017 21:00:00 24,3 18,5 8 4 26 14 SSE 1017,6 45 0,0
16.08.2017 20:00:00 25,5 17,2 15 8 27 15 S 1017,7 46 0,0
16.08.2017 19:00:00 26,7 18,0 13 7 22 12 S 1017,4 37 0,0
16.08.2017 18:00:00 29,0 16,2 13 7 23 12 S 1017,5 39 0,0
16.08.2017 17:00:00 29,1 17,3 16 9 26 14 S 1017,8 45 0,0
16.08.2017 16:00:00 29,8 14,4 16 9 24 13 S 1018,0 52 0,0
16.08.2017 15:00:00 30,1 13,8 11 6 25 13 S 1018,5 60 0,0
16.08.2017 14:00:00 28,0 13,9 10 6 21 11 S 1018,6 48 0,0
16.08.2017 13:00:00 27,3 14,7 12 7 23 13 SSE 1019,1 30 0,0
16.08.2017 12:00:00 28,4 12,7 4 2 15 8 E 1019,3 43 0,0
16.08.2017 11:00:00 26,2 14,3 8 5 14 7 WSW 1019,6 55 0,0
16.08.2017 10:00:00 24,8 14,0 5 3 10 5 WSW 1019,8 44 0,0
16.08.2017 09:00:00 22,5 13,6 3 1 8 4 NNE 1019,6 53 0,0
16.08.2017 08:00:00 18,9 13,7 8 4 10 5 NW 1019,7 10 0,0
16.08.2017 07:00:00 17,4 13,7 5 3 8 4 N 1019,4 50 0,0
16.08.2017 06:00:00 18,2 15,1 4 2 8 5 N 1019,5 44 0,0
16.08.2017 05:00:00 18,7 16,1 5 3 14 8 NW 1019,6 27 0,0
16.08.2017 04:00:00 18,7 15,4 6 3 10 6 W 1020,0 34 0,0
16.08.2017 03:00:00 20,1 15,9 5 3 12 7 SE 1019,9 42 0,0
16.08.2017 02:00:00 20,1 17,3 5 3 8 4 N 1020,2 32 0,0
16.08.2017 01:00:00 20,3 17,1 7 4 8 5 W 1020,7 35 0,0
16.08.2017 00:00:00 20,8 17,4 3 1 11 6 ESE 1020,3 35 0,0
15.08.2017 23:00:00 20,9 18,1 5 3 8 4 N 1019,9 45 -
15.08.2017 22:00:00 21,2 18,4 4 2 10 5 WNW 1020,5 29 0,0
15.08.2017 21:00:00 21,7 19,1 4 2 14 8 SSE 1019,8 28 0,0
15.08.2017 20:00:00 22,6 17,9 11 6 24 13 SSE 1019,2 45 0,0
15.08.2017 19:00:00 25,0 15,3 13 7 28 15 SE 1018,3 40 0,0
15.08.2017 18:00:00 23,1 17,8 14 8 27 15 SSE 1019,8 36 0,0
15.08.2017 17:00:00 25,0 15,9 16 9 29 16 SSE 1020,1 20 0,0
15.08.2017 16:00:00 25,7 16,8 16 9 26 14 SSE 1019,9 22 0,0
15.08.2017 15:00:00 25,8 16,6 14 8 29 16 SE 1019,7 22 0,0
15.08.2017 14:00:00 25,8 16,6 16 9 30 16 SSE 1019,6 23 0,0
15.08.2017 13:00:00 25,6 16,4 15 8 29 15 ESE 1019,9 26 0,0
15.08.2017 12:00:00 25,0 16,4 16 9 30 16 ESE 1020,3 28 0,0
15.08.2017 11:00:00 23,7 16,7 21 12 31 17 E 1020,6 30 0,0
15.08.2017 10:00:00 23,1 17,8 19 10 27 15 E 1020,7 30 0,0
15.08.2017 09:00:00 21,8 18,2 19 11 26 14 ENE 1020,8 27 0,0
15.08.2017 08:00:00 20,4 18,5 12 7 18 10 ENE 1020,5 20 0,0
15.08.2017 07:00:00 19,9 18,4 12 7 18 10 ENE 1020,2 19 0,0
15.08.2017 06:00:00 20,0 18,5 11 6 19 11 NE 1020,2 17 0,0
15.08.2017 05:00:00 20,0 18,7 6 3 17 9 NE 1020,0 17 0,0
15.08.2017 04:00:00 20,1 18,8 10 5 20 11 ENE 1019,8 17 0,0
15.08.2017 03:00:00 20,6 19,1 13 7 23 12 E 1019,9 19 0,0
15.08.2017 02:00:00 20,7 19,4 16 8 23 12 ENE 1020,1 13 0,0
15.08.2017 01:00:00 21,1 19,6 16 9 24 13 E 1020,0 16 0,0
15.08.2017 00:00:00 21,1 19,7 13 7 20 11 E 1019,7 18 0,0
14.08.2017 23:00:00 21,0 19,5 10 6 14 8 ENE 1019,7 20 0,0
14.08.2017 22:00:00 21,7 19,3 8 4 19 11 ENE 1019,5 30 0,0
14.08.2017 21:00:00 22,8 20,0 11 6 23 13 ESE 1019,1 31 0,0
14.08.2017 20:00:00 23,5 20,0 14 7 27 14 ESE 1018,7 38 0,0
14.08.2017 19:00:00 24,0 20,1 17 9 29 16 SE 1018,6 31 0,0
14.08.2017 18:00:00 24,7 19,8 17 9 30 16 SE 1018,7 35 0,0
14.08.2017 17:00:00 25,5 19,6 19 10 34 18 SE 1018,5 21 0,0
14.08.2017 16:00:00 25,5 19,4 21 12 35 19 SE 1018,6 22 0,0
14.08.2017 15:00:00 25,6 19,3 22 12 38 21 SE 1019,0 25 0,0
14.08.2017 14:00:00 25,4 19,5 20 11 35 19 SE 1019,3 17 0,0
14.08.2017 13:00:00 25,2 19,1 19 10 32 18 ESE 1019,4 31 0,0
14.08.2017 12:00:00 25,5 17,4 22 12 34 18 E 1019,2 34 0,0
14.08.2017 11:00:00 25,2 16,3 18 10 29 16 E 1019,2 37 0,0
14.08.2017 10:00:00 24,6 16,1 22 12 31 17 E 1018,8 39 0,0
14.08.2017 09:00:00 22,9 16,4 18 10 27 15 ENE 1018,5 46 0,0
14.08.2017 08:00:00 20,2 14,8 11 6 18 10 NE 1018,1 39 0,0
14.08.2017 07:00:00 18,4 15,3 10 5 16 9 NE 1017,8 47 0,0
14.08.2017 06:00:00 17,9 13,8 9 5 14 7 NE 1017,7 58 0,0
14.08.2017 05:00:00 17,9 13,0 5 3 9 5 NE 1017,7 60 0,0
14.08.2017 04:00:00 18,2 13,1 5 3 11 6 N 1017,8 60 0,0
14.08.2017 03:00:00 19,4 13,6 6 4 10 5 NE 1017,6 60 0,0
14.08.2017 02:00:00 19,2 14,0 7 4 14 7 NE 1017,6 60 0,0
14.08.2017 01:00:00 19,7 14,5 5 3 10 6 ENE 1017,6 59 0,0
14.08.2017 00:00:00 20,3 15,1 8 5 12 6 ENE 1017,8 58 0,0
13.08.2017 23:00:00 21,1 15,4 4 2 8 5 NNW 1017,5 59 0,0
13.08.2017 22:00:00 21,6 15,7 7 4 12 6 W 1017,5 59 0,0
13.08.2017 21:00:00 22,9 16,0 8 4 21 11 SW 1017,2 60 0,0
13.08.2017 20:00:00 24,1 15,6 13 7 31 17 SSW 1016,8 40 0,0
13.08.2017 19:00:00 24,8 15,1 17 9 32 17 S 1016,6 26 0,0
13.08.2017 18:00:00 26,3 12,7 18 10 29 15 S 1016,8 28 0,0
13.08.2017 17:00:00 28,3 12,2 16 9 34 18 S 1016,9 31 0,0
13.08.2017 16:00:00 27,9 11,9 19 10 35 19 SSE 1017,3 33 0,0
13.08.2017 15:00:00 26,9 13,3 19 11 33 18 SSE 1017,9 40 0,0
13.08.2017 14:00:00 27,4 12,6 17 9 30 16 S 1018,3 49 0,0
13.08.2017 13:00:00 26,8 12,4 16 9 30 16 SSE 1018,8 58 0,0
13.08.2017 12:00:00 27,8 11,8 11 6 22 12 W 1019,1 60 0,0
13.08.2017 11:00:00 26,3 12,4 11 6 26 14 W 1019,5 44 0,0
13.08.2017 10:00:00 23,6 12,3 10 6 19 10 W 1019,5 60 0,0
13.08.2017 09:00:00 21,0 12,2 11 6 19 10 W 1019,5 60 0,0
13.08.2017 08:00:00 18,9 12,2 13 7 24 13 W 1018,9 60 0,0
13.08.2017 07:00:00 16,9 12,0 11 6 20 11 W 1018,8 60 0,0
13.08.2017 06:00:00 17,0 11,5 12 7 18 10 W 1018,7 60 0,0
13.08.2017 05:00:00 17,3 10,9 15 8 18 10 WNW 1019,0 60 0,0
13.08.2017 04:00:00 17,1 10,5 9 5 12 6 WNW 1019,5 60 0,0
13.08.2017 03:00:00 18,5 10,8 8 4 10 5 NNW 1019,3 60 0,0
13.08.2017 02:00:00 17,9 10,0 0 0 8 5 N 1020,1 60 0,0
13.08.2017 01:00:00 19,5 10,5 4 2 10 5 ENE 1020,3 60 0,0
13.08.2017 00:00:00 20,5 10,3 8 4 20 11 W 1020,0 60 0,0
12.08.2017 23:00:00 21,2 9,4 5 3 23 12 N 1019,8 60 0,0
12.08.2017 22:00:00 23,1 9,5 14 8 31 17 WNW 1019,5 60 0,0
12.08.2017 21:00:00 24,9 8,8 19 10 37 20 WNW 1019,1 60 0,0
12.08.2017 20:00:00 27,1 5,4 24 13 41 22 NNW 1018,6 20 -
12.08.2017 19:00:00 28,7 4,2 26 14 40 22 NNW 1018,2 22 0,0
12.08.2017 18:00:00 29,6 2,0 26 14 41 22 NNW 1018,4 22 0,0
12.08.2017 17:00:00 29,7 2,8 28 15 48 26 NNW 1018,6 23 0,0
12.08.2017 16:00:00 28,9 4,4 18 10 42 23 WNW 1019,3 25 0,0
12.08.2017 15:00:00 28,4 4,6 26 14 48 26 NNW 1020,0 28 0,0
12.08.2017 14:00:00 27,8 4,8 30 16 49 26 N 1020,4 35 0,0
12.08.2017 13:00:00 26,1 4,5 16 9 36 19 NNW 1021,3 44 0,0
12.08.2017 12:00:00 24,8 6,5 18 10 34 18 WNW 1021,8 51 0,2
12.08.2017 11:00:00 22,6 8,7 16 9 29 16 NW 1022,4 57 0,0
12.08.2017 10:00:00 20,8 9,7 16 8 27 14 W 1022,5 51 0,0
12.08.2017 09:00:00 19,5 9,7 19 11 29 15 WNW 1022,5 60 0,0
12.08.2017 08:00:00 16,8 9,7 14 7 27 15 W 1022,5 60 0,0
12.08.2017 07:00:00 14,3 8,9 15 8 22 12 W 1022,2 60 0,0
12.08.2017 06:00:00 14,2 8,8 8 4 15 8 SW 1021,9 60 0,0
12.08.2017 05:00:00 14,9 8,4 11 6 24 13 W 1021,8 60 0,0
12.08.2017 04:00:00 15,7 8,2 15 8 24 13 NNW 1022,1 60 0,0
12.08.2017 03:00:00 17,9 8,2 16 9 28 15 NW 1022,1 60 0,0

tt = Température de l'air
td = dewpoint
ff = Vitesse du vent
fx = gusts
dd = Direction du vent
ppp = reduced air pressure
vv = visibility
rr = Quantités de précipitations

stations d'obs. à proximité